TimeEST,TemperatureF,Dew PointF,Humidity,Sea Level PressureIn,VisibilityMPH,Wind Direction,Wind SpeedMPH,Gust SpeedMPH,PrecipitationIn,Events,Conditions,WindDirDegrees,DateUTC
12:06 AM,21.2,-2.2,36,30.39,10.0,WSW,5.8,-,N/A,,Clear,240,2014-01-30 05:06:00
12:24 AM,21.2,-0.4,39,30.41,10.0,SW,3.5,-,N/A,,Clear,230,2014-01-30 05:24:00
12:45 AM,19.4,-0.4,42,30.41,10.0,WSW,3.5,-,N/A,,Clear,240,2014-01-30 05:45:00
1:06 AM,17.6,-0.4,45,30.41,10.0,West,3.5,-,N/A,,Clear,260,2014-01-30 06:06:00
1:24 AM,15.8,1.4,53,30.42,10.0,Calm,Calm,-,N/A,,Clear,0,2014-01-30 06:24:00
1:45 AM,15.8,3.2,58,30.42,10.0,Calm,Calm,-,N/A,,Clear,0,2014-01-30 06:45:00
2:06 AM,12.2,3.2,67,30.42,10.0,Calm,Calm,-,N/A,,Clear,0,2014-01-30 07:06:00
2:24 AM,12.2,5.0,73,30.43,10.0,Calm,Calm,-,N/A,,Clear,0,2014-01-30 07:24:00
2:45 AM,12.2,5.0,73,30.44,10.0,Calm,Calm,-,N/A,,Clear,0,2014-01-30 07:45:00
3:06 AM,12.2,5.0,73,30.44,10.0,Calm,Calm,-,N/A,,Clear,0,2014-01-30 08:06:00
3:27 AM,12.2,3.2,67,30.44,10.0,Calm,Calm,-,N/A,,Clear,0,2014-01-30 08:27:00
3:45 AM,12.2,5.0,73,30.44,10.0,Calm,Calm,-,N/A,,Clear,0,2014-01-30 08:45:00
4:06 AM,10.4,5.0,79,30.44,10.0,Calm,Calm,-,N/A,,Clear,0,2014-01-30 09:06:00
4:27 AM,12.2,5.0,73,30.45,10.0,Calm,Calm,-,N/A,,Clear,0,2014-01-30 09:27:00
4:45 AM,10.4,5.0,79,30.45,10.0,Calm,Calm,-,N/A,,Clear,0,2014-01-30 09:45:00
5:06 AM,10.4,5.0,79,30.46,10.0,Calm,Calm,-,N/A,,Clear,0,2014-01-30 10:06:00
5:27 AM,10.4,5.0,79,30.46,10.0,Calm,Calm,-,N/A,,Clear,0,2014-01-30 10:27:00
5:30 AM,10.4,5.0,79,30.46,10.0,Calm,Calm,-,N/A,,Clear,0,2014-01-30 10:30:00
5:45 AM,8.6,5.0,85,30.47,10.0,Calm,Calm,-,N/A,,Clear,0,2014-01-30 10:45:00
6:55 AM,8.6,3.2,79,30.49,10.0,NW,3.5,-,N/A,,Clear,320,2014-01-30 11:55:00
7:55 AM,10.4,6.8,85,30.49,10.0,Calm,Calm,-,N/A,,Clear,0,2014-01-30 12:55:00
8:45 AM,17.6,6.8,63,30.50,10.0,Calm,Calm,-,N/A,,Clear,0,2014-01-30 13:45:00
9:45 AM,23.0,5.0,46,30.51,10.0,Calm,Calm,-,N/A,,Clear,0,2014-01-30 14:45:00
10:45 AM,24.8,10.4,54,30.50,10.0,ESE,3.5,-,N/A,,Clear,120,2014-01-30 15:45:00
11:45 AM,26.6,1.4,34,30.48,10.0,SE,4.6,-,N/A,,Clear,130,2014-01-30 16:45:00
12:45 PM,26.6,5.0,40,30.45,10.0,SE,6.9,-,N/A,,Clear,130,2014-01-30 17:45:00
1:45 PM,26.6,6.8,43,30.41,10.0,SE,4.6,-,N/A,,Clear,130,2014-01-30 18:45:00
2:45 PM,28.4,6.8,40,30.39,10.0,SSE,6.9,-,N/A,,Clear,150,2014-01-30 19:45:00
3:45 PM,28.4,6.8,40,30.38,10.0,SE,6.9,-,N/A,,Clear,130,2014-01-30 20:45:00
4:45 PM,26.6,8.6,47,30.36,10.0,SSE,5.8,-,N/A,,Clear,150,2014-01-30 21:45:00
5:45 PM,23.0,10.4,59,30.32,10.0,ESE,3.5,-,N/A,,Clear,120,2014-01-30 22:45:00
6:45 PM,23.0,10.4,59,30.32,10.0,SE,3.5,-,N/A,,Clear,130,2014-01-30 23:45:00
7:45 PM,23.0,10.4,59,30.31,10.0,SE,3.5,-,N/A,,Clear,140,2014-01-31 00:45:00
8:45 PM,21.2,10.4,63,30.28,10.0,Calm,Calm,-,N/A,,Clear,0,2014-01-31 01:45:00
9:45 PM,17.6,12.2,79,30.28,10.0,Calm,Calm,-,N/A,,Clear,0,2014-01-31 02:45:00
10:09 PM,17.6,12.2,79,30.28,10.0,Calm,Calm,-,N/A,,Clear,0,2014-01-31 03:09:00
10:27 PM,17.6,10.4,73,30.28,10.0,Calm,Calm,-,N/A,,Clear,0,2014-01-31 03:27:00
10:48 PM,17.6,12.2,79,30.25,10.0,ENE,3.5,-,N/A,,Clear,70,2014-01-31 03:48:00
11:09 PM,17.6,14.0,86,30.24,10.0,Calm,Calm,-,N/A,,Clear,0,2014-01-31 04:09:00
11:27 PM,19.4,14.0,80,30.24,10.0,Calm,Calm,-,N/A,,Clear,0,2014-01-31 04:27:00
11:48 PM,19.4,15.8,86,30.23,10.0,Calm,Calm,-,N/A,,Clear,0,2014-01-31 04:48:00